Вернуться в каталог

STARLINK-32194

АктивенСвязьVLEO
NORAD 60315·PAYLOAD·🇺🇸 United States

Запущен Jul 28, 2024 с Vandenberg Space Force Base

Loading…

Ближайшие Пролёты (ближайшие 24 часа)

TLE

СвежийSource: CelesTrak SupGP

Эпоха: Sep 15, 2026, 02:22 UTC

1 60315C 24133Q   26258.09909722  .00033482  00000+0  98931-3 0  2589
2 60315  53.1558 134.7385 0001116  94.1382 335.8321 15.34371769    13

Отслеживайте STARLINK-32194 в реальном времени с AllMySat

Download on the App Store